QPF
0.00 0.00 0.00 0.00 0.00 0.00 0.00 0.00 0.00 0.00 0.00 0.00 0.00 0.00 0.00 0.00 0.00 0.00 0.00 0.00 0.00 0.00 0.00 0.00 0.00 0.00 0.00 0.00 0.00 0.00 0.00 0.00 0.00 0.00 0.00 0.00 0.00 0.00 0.00 0.00 0.00 0.00 0.00 0.00 0.00 0.00 0.00 0.00 0.00
0.00 0.00 0.00 0.00 0.00 0.00 0.00 0.00 0.00 0.00 0.00 0.00 0.00 0.00 0.00 0.00 0.00 0.00 0.00 0.00 0.00 0.00 0.00 0.00 0.00 0.00 0.00 0.00 0.00 0.00 0.00 0.00 0.00 0.00 0.00 0.00 0.00 0.00 0.00 0.00 0.00 0.00 0.00 0.00 0.00 0.00 0.00 0.00 0.00
0.00 0.00 0.00 0.00 0.00 0.00 0.00 0.00 0.00 0.00 0.00 0.00 0.00 0.00 0.00 0.00 0.00 0.00 0.00 0.00 0.00 0.00 0.00 0.00 0.00 0.00 0.00 0.00 0.00 0.00 0.00 0.00 0.00 0.00 0.01 0.01 0.00 0.00 0.00 0.00 0.00 0.00 0.00 0.00 0.00 0.00 0.00 0.00 0.00
0.00 0.00 0.00 0.00 0.00 0.00 0.00 0.00 0.00 0.00 0.00 0.00 0.00 0.00 0.00 0.00 0.00 0.00 0.00 0.00 0.00 0.00 0.00 0.00 0.00 0.00 0.00 0.00 0.00 0.00 0.00 0.00 0.00 0.00 0.01 0.00 0.00 0.00 0.00 0.01 0.01 0.00 0.00 0.00 0.00 0.01 0.01 0.00 0.00
0.00 0.00 0.00 0.00 0.00 0.00 0.00 0.00 0.00 0.00 0.00 0.00 0.00 0.00 0.00 0.00 0.00 0.00 0.00 0.00 0.00 0.00 0.00 0.00 0.00 0.00 0.00 0.00 0.00 0.00 0.00 0.00 0.00 0.00 0.00 0.01 0.01 0.00 0.00 0.00 0.00 0.00 0.00 0.00 0.00 0.00 0.01 0.00 0.00
0.00 0.00 0.00 0.00 0.00 0.00 0.00 0.00 0.00 0.00 0.00 0.00 0.00 0.00 0.00 0.00 0.00 0.00 0.00 0.00 0.00 0.00 0.00 0.00 0.00 0.00 0.00 0.00 0.00 0.00 0.00 0.00 0.00 0.00 0.00 0.00 0.00 0.00 0.00 0.00 0.00 0.00 0.00 0.01 0.00 0.01 0.02 0.02 0.01
0.00 0.00 0.00 0.00 0.00 0.00 0.00 0.00 0.00 0.00 0.00 0.00 0.00 0.00 0.00 0.00 0.00 0.00 0.00 0.00 0.00 0.00 0.00 0.00 0.00 0.00 0.00 0.00 0.00 0.00 0.00 0.00 0.00 0.00 0.00 0.00 0.00 0.00 0.00 0.00 0.00 0.00 0.00 0.01 0.01 0.01 0.01 0.02 0.02
0.00 0.00 0.00 0.00 0.00 0.00 0.00 0.00 0.00 0.00 0.00 0.00 0.00 0.00 0.00 0.00 0.00 0.00 0.00 0.00 0.00 0.00 0.00 0.00 0.00 0.00 0.00 0.00 0.00 0.00 0.00 0.00 0.00 0.00 0.00 0.00 0.00 0.00 0.00 0.00 0.00 0.00 0.00 0.00 0.01 0.01 0.01 0.02 0.03
0.00 0.00 0.00 0.00 0.00 0.00 0.00 0.00 0.00 0.00 0.00 0.00 0.00 0.00 0.00 0.00 0.00 0.00 0.00 0.00 0.00 0.00 0.00 0.00 0.00 0.00 0.00 0.00 0.00 0.00 0.00 0.00 0.00 0.00 0.00 0.00 0.00 0.00 0.00 0.00 0.00 0.01 0.01 0.02 0.01 0.01 0.02 0.02 0.02
0.00 0.00 0.00 0.00 0.00 0.00 0.00 0.00 0.00 0.00 0.00 0.00 0.00 0.00 0.00 0.00 0.00 0.00 0.00 0.00 0.00 0.00 0.00 0.00 0.00 0.00 0.00 0.00 0.00 0.00 0.00 0.00 0.00 0.00 0.00 0.00 0.00 0.00 0.00 0.00 0.00 0.00 0.01 0.02 0.06 0.04 0.02 0.04 0.01
0.00 0.00 0.00 0.00 0.00 0.00 0.00 0.00 0.00 0.00 0.00 0.00 0.00 0.00 0.00 0.00 0.00 0.00 0.00 0.00 0.00 0.00 0.00 0.00 0.00 0.00 0.00 0.00 0.00 0.00 0.00 0.00 0.00 0.00 0.00 0.00 0.00 0.00 0.00 0.00 0.00 0.00 0.00 0.00 0.01 0.01 0.01 0.01 0.00
0.00 0.00 0.00 0.00 0.00 0.00 0.00 0.00 0.00 0.00 0.00 0.00 0.00 0.00 0.00 0.00 0.00 0.00 0.00 0.00 0.00 0.00 0.00 0.00 0.00 0.00 0.00 0.00 0.00 0.00 0.00 0.00 0.00 0.00 0.00 0.00 0.00 0.00 0.00 0.00 0.00 0.00 0.00 0.00 0.00 0.00 0.04 0.02 0.01
0.00 0.00 0.00 0.00 0.00 0.00 0.00 0.00 0.00 0.00 0.00 0.00 0.00 0.00 0.00 0.00 0.00 0.00 0.00 0.00 0.00 0.00 0.00 0.00 0.00 0.00 0.00 0.00 0.00 0.00 0.00 0.00 0.00 0.00 0.00 0.00 0.00 0.00 0.00 0.00 0.00 0.00 0.00 0.00 0.00 0.00 0.01 0.01 0.05
0.00 0.00 0.00 0.00 0.00 0.00 0.00 0.00 0.00 0.00 0.00 0.00 0.00 0.00 0.00 0.00 0.00 0.00 0.00 0.00 0.00 0.00 0.00 0.00 0.00 0.00 0.00 0.00 0.00 0.00 0.00 0.00 0.00 0.00 0.00 0.00 0.00 0.00 0.00 0.00 0.00 0.00 0.00 0.00 0.00 0.00 0.00 0.00 0.03
0.00 0.00 0.00 0.00 0.00 0.00 0.00 0.00 0.00 0.00 0.00 0.00 0.00 0.00 0.00 0.00 0.00 0.00 0.00 0.00 0.00 0.00 0.00 0.00 0.00 0.00 0.00 0.00 0.00 0.00 0.00 0.00 0.00 0.00 0.00 0.00 0.00 0.00 0.00 0.00 0.00 0.00 0.00 0.00 0.00 0.00 0.00 0.00 0.00
0.00 0.00 0.00 0.00 0.00 0.00 0.00 0.00 0.00 0.00 0.00 0.00 0.00 0.00 0.00 0.00 0.00 0.00 0.00 0.00 0.00 0.00 0.00 0.00 0.00 0.00 0.00 0.00 0.00 0.00 0.00 0.00 0.00 0.00 0.00 0.00 0.00 0.00 0.00 0.00 0.00 0.00 0.00 0.00 0.00 0.00 0.00 0.00 0.00
0.00 0.00 0.00 0.00 0.00 0.00 0.00 0.00 0.00 0.00 0.00 0.00 0.00 0.00 0.00 0.00 0.00 0.00 0.00 0.00 0.00 0.00 0.00 0.00 0.00 0.00 0.00 0.00 0.00 0.00 0.00 0.00 0.00 0.00 0.00 0.00 0.00 0.00 0.00 0.00 0.00 0.00 0.00 0.00 0.00 0.00 0.00 0.00 0.00
0.00 0.00 0.00 0.00 0.00 0.00 0.00 0.00 0.00 0.00 0.00 0.00 0.00 0.00 0.00 0.00 0.00 0.00 0.00 0.00 0.00 0.00 0.00 0.00 0.00 0.00 0.00 0.00 0.00 0.00 0.00 0.00 0.00 0.00 0.00 0.00 0.00 0.00 0.00 0.00 0.00 0.00 0.00 0.00 0.00 0.00 0.00 0.00 0.00
0.00 0.00 0.00 0.00 0.00 0.00 0.00 0.00 0.00 0.00 0.00 0.00 0.00 0.00 0.00 0.00 0.00 0.00 0.00 0.00 0.00 0.00 0.00 0.00 0.00 0.00 0.00 0.00 0.00 0.00 0.00 0.00 0.00 0.00 0.00 0.01 0.02 0.00 0.00 0.00 0.00 0.01 0.00 0.00 0.00 0.00 0.00 0.01 0.02
0.00 0.00 0.00 0.00 0.00 0.00 0.00 0.00 0.00 0.00 0.00 0.00 0.00 0.00 0.00 0.00 0.00 0.00 0.00 0.00 0.00 0.00 0.00 0.00 0.00 0.00 0.00 0.00 0.00 0.00 0.00 0.00 0.00 0.01 0.00 0.04 0.06 0.02 0.00 0.00 0.00 0.00 0.00 0.00 0.00 0.00 0.00 0.02 0.02
0.00 0.00 0.00 0.00 0.00 0.00 0.00 0.00 0.00 0.00 0.00 0.00 0.00 0.00 0.00 0.00 0.00 0.00 0.00 0.00 0.00 0.00 0.00 0.00 0.00 0.00 0.00 0.00 0.00 0.00 0.00 0.00 0.00 0.00 0.00 0.00 0.00 0.00 0.00 0.00 0.00 0.00 0.00 0.00 0.00 0.00 0.00 0.00 0.03
0.00 0.00 0.00 0.00 0.00 0.00 0.00 0.00 0.00 0.00 0.00 0.00 0.00 0.00 0.00 0.00 0.00 0.00 0.00 0.00 0.00 0.00 0.00 0.00 0.00 0.00 0.00 0.00 0.00 0.00 0.00 0.00 0.00 0.00 0.00 0.00 0.00 0.00 0.00 0.00 0.00 0.00 0.00 0.00 0.00 0.00 0.00 0.00 0.01
0.00 0.00 0.00 0.00 0.00 0.00 0.00 0.00 0.00 0.00 0.00 0.00 0.00 0.00 0.00 0.00 0.00 0.00 0.00 0.00 0.00 0.00 0.00 0.00 0.00 0.00 0.00 0.00 0.00 0.00 0.00 0.00 0.00 0.00 0.00 0.00 0.00 0.00 0.00 0.00 0.00 0.00 0.00 0.00 0.00 0.00 0.00 0.00 0.00
0.00 0.00 0.00 0.00 0.00 0.00 0.00 0.00 0.00 0.00 0.00 0.00 0.00 0.00 0.00 0.00 0.00 0.00 0.00 0.00 0.00 0.00 0.00 0.00 0.00 0.00 0.00 0.00 0.00 0.00 0.00 0.00 0.00 0.00 0.00 0.00 0.00 0.00 0.00 0.00 0.00 0.00 0.00 0.00 0.00 0.00 0.00 0.00 0.00
0.00 0.00 0.00 0.00 0.00 0.00 0.00 0.00 0.00 0.00 0.00 0.00 0.00 0.00 0.00 0.00 0.00 0.00 0.00 0.00 0.00 0.00 0.00 0.00 0.00 0.00 0.00 0.00 0.00 0.00 0.00 0.00 0.00 0.00 0.00 0.00 0.00 0.00 0.00 0.00 0.00 0.00 0.00 0.00 0.00 0.00 0.00 0.00 0.00
0.00 0.00 0.00 0.00 0.00 0.00 0.00 0.00 0.00 0.00 0.00 0.00 0.00 0.00 0.00 0.00 0.00 0.00 0.00 0.00 0.00 0.00 0.00 0.00 0.00 0.00 0.00 0.00 0.00 0.00 0.00 0.00 0.00 0.00 0.00 0.00 0.00 0.00 0.00 0.00 0.00 0.00 0.00 0.00 0.00 0.00 0.00 0.00 0.00
0.00 0.00 0.00 0.00 0.00 0.00 0.00 0.00 0.00 0.00 0.00 0.00 0.00 0.00 0.00 0.00 0.00 0.00 0.00 0.00 0.00 0.00 0.00 0.00 0.00 0.00 0.00 0.00 0.00 0.00 0.00 0.00 0.00 0.00 0.00 0.00 0.00 0.00 0.00 0.00 0.00 0.00 0.00 0.00 0.00 0.00 0.00 0.00 0.00
0.00 0.00 0.00 0.00 0.00 0.00 0.00 0.00 0.00 0.00 0.00 0.00 0.00 0.00 0.00 0.00 0.00 0.00 0.00 0.00 0.00 0.00 0.00 0.00 0.00 0.00 0.00 0.00 0.00 0.00 0.00 0.00 0.00 0.00 0.00 0.00 0.00 0.00 0.00 0.00 0.00 0.00 0.00 0.00 0.00 0.00 0.00 0.01 0.01
0.00 0.00 0.00 0.00 0.00 0.00 0.00 0.00 0.00 0.00 0.00 0.00 0.00 0.00 0.00 0.00 0.00 0.00 0.00 0.00 0.00 0.00 0.00 0.00 0.00 0.00 0.00 0.00 0.00 0.00 0.00 0.01 0.00 0.00 0.00 0.00 0.00 0.00 0.00 0.00 0.00 0.00 0.00 0.00 0.00 0.00 0.00 0.02 0.02
0.00 0.00 0.00 0.00 0.00 0.00 0.00 0.00 0.00 0.00 0.00 0.00 0.00 0.00 0.00 0.00 0.00 0.00 0.00 0.00 0.00 0.00 0.00 0.00 0.00 0.00 0.00 0.00 0.00 0.00 0.00 0.00 0.00 0.00 0.00 0.00 0.00 0.00 0.00 0.00 0.00 0.00 0.00 0.00 0.00 0.00 0.01 0.03 0.05
MSLP
1012.50 1012.82 1013.11 1013.11 1014.19 1014.43 1013.35 1011.47 1009.73 1008.40 1007.48 1006.39 1006.15 1006.46 1006.46 1006.74 1007.29 1008.14 1006.93 1007.19 1007.56 1008.12 1009.00 1009.67 1010.12 1010.54 1010.86 1011.17 1011.41 1011.65 1011.94 1012.32 1012.57 1012.71 1012.85 1012.87 1012.91 1013.12 1013.24 1013.43 1013.51 1013.49 1013.68 1013.70 1013.69 1013.66 1013.64 1013.67 1013.74
1012.37 1012.72 1012.94 1013.34 1014.28 1014.28 1012.52 1010.44 1009.08 1007.71 1006.36 1005.97 1005.97 1006.12 1006.34 1006.67 1006.57 1006.88 1007.17 1007.26 1007.47 1007.96 1008.69 1009.23 1009.80 1010.40 1010.67 1011.02 1011.34 1011.62 1011.90 1012.11 1012.41 1012.56 1012.68 1012.83 1012.74 1012.83 1013.00 1013.11 1013.21 1013.19 1013.27 1013.34 1013.49 1013.50 1013.53 1013.53 1013.55
1012.07 1012.21 1013.18 1013.87 1014.34 1013.67 1011.85 1009.65 1008.50 1007.10 1006.18 1005.81 1006.04 1006.12 1006.28 1006.32 1006.28 1006.54 1006.43 1007.01 1007.63 1008.11 1008.37 1009.06 1009.62 1010.06 1010.41 1010.80 1011.21 1011.47 1011.78 1011.99 1012.36 1012.29 1012.55 1012.53 1012.55 1012.61 1012.72 1012.82 1012.92 1012.95 1013.04 1013.12 1013.05 1013.03 1013.23 1013.34 1013.43
1012.19 1012.80 1013.67 1013.89 1013.73 1012.15 1010.78 1009.00 1007.86 1007.05 1006.02 1005.69 1005.70 1006.22 1005.94 1005.54 1005.83 1005.79 1006.18 1006.83 1007.65 1008.11 1008.43 1008.93 1009.32 1009.78 1010.20 1010.62 1011.01 1011.28 1011.44 1011.69 1011.75 1011.95 1012.37 1012.25 1012.23 1012.28 1012.33 1012.48 1012.66 1012.70 1012.65 1012.72 1012.72 1012.79 1012.88 1013.00 1013.15
1012.34 1013.10 1013.84 1013.85 1012.91 1011.40 1010.01 1008.59 1007.56 1006.65 1005.66 1005.21 1005.41 1005.84 1005.86 1005.35 1005.53 1005.75 1006.29 1006.89 1007.39 1008.01 1008.29 1008.68 1009.07 1009.59 1010.03 1010.41 1010.70 1011.02 1011.24 1011.36 1011.53 1011.64 1011.72 1011.92 1011.97 1011.89 1011.94 1012.03 1012.19 1012.33 1012.38 1012.42 1012.43 1012.51 1012.54 1012.70 1012.80
1012.62 1013.37 1014.17 1013.62 1012.12 1010.49 1009.23 1007.86 1007.23 1006.46 1005.52 1005.35 1005.40 1005.71 1005.82 1005.53 1005.78 1006.05 1006.36 1006.87 1007.34 1007.73 1008.27 1008.59 1008.97 1009.43 1009.77 1009.99 1010.26 1010.45 1010.84 1011.06 1011.36 1011.41 1011.49 1011.60 1011.70 1011.75 1011.77 1011.82 1011.90 1012.02 1012.06 1012.14 1012.17 1012.14 1012.17 1012.40 1012.63
1012.52 1013.42 1013.55 1012.69 1011.36 1009.77 1008.21 1006.79 1006.58 1006.32 1005.70 1005.11 1005.18 1005.72 1005.93 1005.89 1005.87 1006.03 1006.35 1006.86 1007.26 1007.76 1008.24 1008.56 1008.91 1009.23 1009.61 1009.91 1010.08 1010.17 1010.58 1010.87 1011.18 1011.32 1011.34 1011.41 1011.54 1011.55 1011.60 1011.67 1011.69 1011.68 1011.72 1011.85 1011.93 1011.82 1011.85 1012.06 1012.34
1011.99 1012.96 1013.00 1012.14 1010.91 1009.27 1007.56 1006.82 1006.15 1006.07 1005.58 1005.01 1005.07 1005.67 1005.76 1005.07 1005.98 1006.48 1007.05 1007.27 1007.62 1008.05 1008.26 1008.52 1008.66 1009.04 1009.45 1009.87 1010.12 1010.41 1010.31 1010.62 1010.92 1011.13 1011.12 1011.10 1011.27 1011.38 1011.46 1011.55 1011.60 1011.41 1011.36 1011.45 1011.50 1011.50 1011.52 1011.73 1012.06
1011.74 1012.49 1012.14 1010.96 1010.11 1008.46 1007.23 1007.19 1005.82 1005.75 1005.41 1005.02 1004.78 1004.68 1004.50 1004.91 1006.14 1006.95 1007.69 1008.04 1008.28 1008.35 1008.27 1008.46 1008.70 1008.82 1009.21 1009.56 1009.96 1010.28 1010.28 1010.43 1010.66 1010.82 1010.86 1010.90 1011.09 1011.35 1011.38 1011.52 1011.39 1011.26 1011.15 1011.13 1011.00 1010.93 1011.06 1011.37 1011.68
1011.38 1011.58 1010.37 1008.54 1008.45 1007.93 1007.27 1006.81 1006.10 1005.83 1005.29 1005.06 1004.74 1004.26 1004.44 1004.74 1005.92 1006.62 1007.31 1007.66 1007.95 1008.12 1008.26 1008.42 1008.82 1008.90 1009.18 1009.40 1009.83 1010.13 1010.37 1010.42 1010.56 1010.70 1010.84 1010.94 1011.05 1011.17 1011.12 1011.10 1010.96 1010.88 1010.81 1010.67 1010.55 1010.59 1010.62 1010.85 1011.33
1010.31 1010.00 1008.24 1008.16 1007.35 1007.59 1007.32 1006.63 1005.68 1005.70 1005.13 1004.63 1004.60 1004.30 1004.87 1005.15 1005.78 1006.28 1006.68 1006.52 1006.45 1006.98 1007.62 1008.14 1008.72 1008.99 1009.20 1009.33 1009.76 1010.14 1010.37 1010.48 1010.54 1010.58 1010.71 1010.86 1010.89 1010.93 1010.94 1010.92 1010.96 1010.93 1010.87 1010.81 1010.56 1010.38 1010.50 1010.80 1011.17
1009.47 1008.97 1008.41 1007.10 1007.12 1007.53 1007.10 1006.34 1005.73 1005.10 1004.57 1003.95 1003.87 1004.08 1004.24 1005.11 1005.71 1005.72 1005.97 1006.01 1006.31 1006.62 1007.15 1007.55 1008.27 1008.73 1009.14 1009.19 1009.71 1009.98 1010.36 1010.28 1010.34 1010.28 1010.39 1010.62 1010.76 1010.81 1010.82 1010.84 1010.78 1010.75 1010.74 1010.63 1010.61 1010.51 1010.50 1010.75 1011.04
1008.92 1007.81 1007.51 1007.38 1007.26 1006.89 1006.60 1005.92 1005.01 1004.35 1003.64 1003.45 1003.53 1003.82 1003.92 1004.27 1004.72 1005.03 1005.00 1005.24 1005.83 1006.43 1006.94 1007.33 1008.02 1008.45 1008.99 1009.41 1009.70 1010.04 1009.98 1009.99 1009.85 1009.97 1009.99 1010.14 1010.34 1010.42 1010.54 1010.51 1010.40 1010.42 1010.45 1010.48 1010.62 1010.65 1010.72 1010.89 1011.04
1007.77 1007.82 1007.40 1007.18 1006.95 1006.41 1005.85 1005.15 1004.68 1003.39 1003.40 1003.22 1003.20 1003.47 1003.34 1003.67 1003.81 1004.59 1005.10 1005.09 1005.43 1005.86 1006.55 1007.20 1007.76 1008.27 1008.79 1009.22 1009.50 1009.48 1009.41 1009.36 1009.51 1009.49 1009.57 1009.67 1009.85 1010.13 1010.25 1010.28 1010.33 1010.39 1010.31 1010.31 1010.41 1010.57 1010.72 1010.88 1011.18
1007.82 1007.69 1007.00 1006.42 1006.39 1005.46 1005.47 1004.71 1003.70 1002.96 1003.07 1002.89 1002.70 1002.83 1002.82 1002.70 1003.34 1003.76 1003.49 1004.14 1004.66 1005.47 1006.33 1007.07 1007.46 1008.15 1008.51 1008.89 1008.95 1009.06 1008.93 1008.94 1009.11 1009.06 1009.09 1009.24 1009.42 1009.58 1009.88 1010.03 1010.05 1010.16 1010.19 1010.37 1010.37 1010.55 1010.76 1010.99 1011.16
1008.01 1007.73 1007.05 1005.69 1005.55 1004.40 1005.51 1003.37 1002.95 1002.42 1002.73 1002.44 1002.11 1002.02 1002.29 1002.28 1002.48 1002.57 1003.18 1003.84 1004.59 1005.29 1006.11 1006.97 1007.39 1007.95 1008.29 1008.59 1008.72 1008.77 1008.68 1008.66 1008.63 1008.60 1008.71 1008.82 1009.01 1009.14 1009.54 1009.75 1009.89 1009.92 1010.08 1010.26 1010.41 1010.55 1010.78 1010.97 1011.15
1008.40 1007.58 1006.81 1005.60 1004.97 1005.03 1004.69 1003.42 1001.60 1001.91 1002.25 1001.87 1001.70 1001.47 1001.60 1001.76 1002.18 1002.58 1003.10 1003.94 1004.78 1005.56 1006.34 1006.99 1007.36 1007.74 1008.04 1008.39 1008.60 1008.49 1008.41 1008.33 1008.18 1008.22 1008.30 1008.44 1008.51 1008.70 1009.16 1009.41 1009.58 1009.62 1009.89 1010.10 1010.22 1010.43 1010.58 1010.90 1011.02
1007.68 1007.24 1006.55 1005.15 1004.46 1004.73 1004.17 1003.58 1002.03 1001.37 1001.59 1001.35 1001.14 1000.78 1000.98 1001.19 1001.14 1001.64 1002.75 1003.74 1004.74 1005.63 1006.22 1006.75 1007.18 1007.53 1007.97 1008.24 1008.44 1008.32 1008.15 1007.95 1007.89 1007.93 1008.01 1008.12 1008.22 1008.37 1008.83 1009.10 1009.30 1009.45 1009.73 1009.88 1010.10 1010.30 1010.42 1010.60 1010.79
1006.35 1006.51 1005.87 1004.25 1004.54 1004.47 1003.91 1003.41 1002.33 1001.13 1001.38 1001.02 1000.49 1000.39 1000.41 1000.54 1001.15 1001.75 1002.81 1003.80 1004.52 1005.52 1006.11 1006.73 1007.02 1007.63 1007.90 1008.35 1008.38 1008.19 1008.11 1007.98 1007.76 1007.65 1007.68 1007.75 1007.85 1008.14 1008.45 1008.82 1008.97 1009.13 1009.47 1009.56 1009.83 1010.08 1010.37 1010.66 1010.75
1005.77 1005.97 1005.19 1004.48 1003.99 1004.55 1003.66 1003.01 1002.11 1000.91 1000.69 1000.33 999.80 999.86 1000.15 1001.13 1001.85 1002.48 1003.04 1003.74 1004.58 1005.32 1006.00 1006.60 1007.02 1007.46 1007.63 1007.88 1007.88 1007.88 1007.97 1007.77 1007.66 1007.57 1007.52 1007.57 1007.70 1007.87 1008.16 1008.49 1008.70 1008.89 1009.17 1009.39 1009.63 1009.77 1010.11 1010.44 1010.58
1005.07 1005.05 1004.78 1004.66 1004.45 1004.31 1003.70 1002.91 1001.97 1000.29 1000.15 999.40 999.13 999.45 999.98 1000.46 1001.33 1002.28 1003.06 1003.75 1004.75 1005.28 1005.88 1006.31 1006.94 1007.22 1007.36 1007.56 1007.58 1007.79 1007.82 1007.74 1007.68 1007.71 1007.67 1007.53 1007.55 1007.67 1007.86 1008.14 1008.39 1008.55 1008.83 1009.16 1009.29 1009.48 1009.71 1010.21 1010.54
1003.93 1004.01 1004.69 1004.73 1005.13 1004.74 1003.91 1003.53 1001.93 1000.96 1000.33 999.80 999.04 999.20 999.43 1000.11 1001.30 1002.17 1002.98 1004.18 1004.65 1005.11 1005.58 1006.24 1006.80 1007.02 1007.17 1007.31 1007.45 1007.73 1007.93 1008.07 1007.97 1007.96 1007.66 1007.59 1007.58 1007.70 1007.81 1007.98 1008.10 1008.26 1008.58 1008.87 1009.03 1009.17 1009.40 1009.63 1010.18
1002.71 1004.20 1004.66 1005.04 1005.19 1005.06 1004.12 1004.60 1001.76 1001.20 1000.52 999.79 999.25 998.96 999.47 1000.01 1001.16 1002.12 1002.94 1004.05 1004.67 1005.01 1005.68 1006.27 1006.68 1006.92 1007.01 1007.11 1007.30 1007.60 1007.78 1007.90 1008.03 1007.95 1007.76 1007.88 1007.79 1007.79 1007.86 1007.94 1008.04 1008.17 1008.41 1008.59 1008.83 1009.14 1009.36 1009.37 1009.64
1003.23 1004.23 1004.77 1005.25 1005.71 1005.29 1003.79 1004.28 1000.89 1000.77 999.62 998.98 998.78 998.82 999.68 1000.81 1001.57 1002.73 1003.58 1004.29 1004.81 1005.30 1005.91 1006.33 1006.63 1006.81 1006.92 1007.12 1007.24 1007.43 1007.68 1007.82 1008.15 1008.03 1007.92 1008.02 1007.97 1007.97 1007.99 1007.95 1007.99 1008.07 1008.23 1008.40 1008.71 1008.99 1009.16 1009.28 1009.37
1003.16 1004.34 1005.69 1005.56 1005.72 1004.66 1003.32 1003.37 1000.86 999.03 998.54 998.64 998.75 999.14 1000.25 1001.28 1002.11 1002.98 1003.66 1004.35 1004.90 1005.53 1006.08 1006.43 1006.63 1006.87 1007.04 1007.11 1007.14 1007.40 1007.65 1007.83 1008.03 1007.95 1007.94 1008.08 1008.13 1008.28 1008.19 1008.00 1008.01 1008.16 1008.27 1008.34 1008.65 1008.89 1009.12 1009.21 1009.24
1001.56 1003.04 1004.10 1004.84 1004.76 1003.97 1002.80 1001.89 999.02 998.16 997.59 997.66 998.34 999.16 1000.27 1001.51 1002.33 1003.07 1003.67 1004.18 1004.88 1005.51 1006.06 1006.28 1006.60 1006.82 1007.02 1006.96 1007.05 1007.46 1007.56 1007.89 1007.97 1007.91 1008.01 1008.13 1008.18 1008.24 1008.18 1008.10 1008.17 1008.26 1008.38 1008.41 1008.63 1008.91 1009.16 1009.37 1009.61
1000.20 1000.88 1002.64 1003.82 1004.00 1003.56 1002.26 1000.32 998.57 997.97 997.65 997.95 998.53 999.39 1000.47 1001.48 1002.36 1003.01 1003.61 1004.25 1004.80 1005.37 1005.88 1006.11 1006.47 1006.73 1006.81 1006.79 1007.02 1007.41 1007.54 1007.85 1007.91 1007.89 1008.06 1008.18 1008.15 1008.23 1008.20 1008.17 1008.29 1008.43 1008.52 1008.63 1008.84 1009.16 1009.48 1009.55 1009.87
998.90 1000.29 1002.40 1003.44 1003.70 1003.22 1001.79 1000.55 998.98 997.89 998.02 998.58 998.96 999.87 1000.87 1001.81 1002.67 1003.22 1003.74 1004.28 1004.76 1005.25 1005.59 1006.04 1006.27 1006.49 1006.53 1006.69 1006.87 1007.19 1007.44 1007.65 1007.78 1007.92 1008.15 1008.26 1008.28 1008.30 1008.28 1008.37 1008.50 1008.61 1008.72 1009.00 1009.21 1009.39 1009.64 1009.74 1010.16
998.98 999.62 1000.21 1001.44 1002.12 1002.01 1001.53 999.66 998.01 997.60 997.76 998.42 999.16 999.67 1000.61 1001.61 1002.42 1002.95 1003.62 1004.15 1004.59 1005.23 1005.67 1006.05 1006.37 1006.46 1006.56 1006.73 1006.80 1007.04 1007.42 1007.53 1007.71 1007.93 1008.16 1008.31 1008.40 1008.34 1008.38 1008.44 1008.73 1008.86 1009.10 1009.37 1009.61 1009.78 1009.74 1009.93 1010.33
997.39 998.22 999.19 999.89 1000.67 1000.69 1000.48 998.21 996.91 996.82 997.07 997.87 998.91 999.60 1000.50 1001.52 1002.02 1002.68 1003.39 1004.10 1004.81 1005.27 1005.79 1006.10 1006.30 1006.40 1006.43 1006.62 1006.72 1007.00 1007.25 1007.40 1007.72 1007.98 1008.22 1008.37 1008.42 1008.41 1008.37 1008.59 1008.87 1009.10 1009.37 1009.68 1009.92 1010.17 1010.15 1010.33 1010.69
Thickness
5784 5781 5778 5772 5739 5728 5723 5741 5769 5770 5779 5798 5800 5791 5790 5795 5779 5752 5804 5801 5795 5787 5776 5766 5759 5753 5748 5744 5740 5736 5731 5726 5722 5719 5716 5716 5715 5713 5712 5710 5709 5710 5707 5706 5707 5709 5710 5711 5711
5782 5779 5774 5758 5723 5712 5725 5756 5759 5773 5792 5797 5793 5791 5790 5782 5797 5796 5792 5796 5792 5784 5774 5765 5756 5748 5742 5737 5731 5727 5723 5719 5714 5712 5709 5707 5708 5706 5705 5705 5704 5704 5703 5702 5701 5701 5702 5704 5705
5780 5779 5757 5739 5716 5711 5724 5762 5768 5781 5790 5791 5782 5790 5788 5784 5798 5793 5800 5793 5785 5778 5771 5760 5752 5744 5738 5731 5724 5719 5714 5712 5706 5706 5702 5703 5702 5701 5698 5697 5697 5697 5696 5695 5695 5696 5695 5695 5697
5771 5761 5750 5727 5720 5737 5748 5766 5774 5778 5790 5790 5787 5769 5792 5804 5797 5800 5799 5790 5779 5772 5763 5754 5746 5739 5732 5726 5719 5714 5711 5706 5705 5700 5695 5697 5696 5695 5693 5692 5688 5687 5689 5688 5688 5688 5688 5689 5690
5765 5748 5724 5720 5727 5744 5757 5767 5774 5772 5785 5788 5785 5768 5775 5797 5801 5798 5791 5784 5775 5767 5759 5750 5743 5734 5728 5722 5716 5710 5706 5702 5699 5696 5696 5693 5691 5690 5689 5688 5685 5682 5679 5679 5680 5681 5682 5682 5683
5743 5736 5710 5706 5731 5753 5760 5769 5769 5773 5781 5782 5777 5768 5772 5793 5789 5789 5787 5778 5772 5765 5755 5747 5739 5732 5726 5721 5715 5710 5702 5698 5694 5694 5692 5688 5685 5684 5682 5680 5677 5675 5674 5672 5673 5674 5675 5674 5674
5733 5717 5710 5720 5739 5747 5762 5778 5771 5767 5768 5775 5780 5758 5773 5779 5784 5786 5780 5773 5768 5761 5751 5742 5735 5728 5721 5715 5710 5706 5699 5694 5690 5688 5686 5683 5679 5677 5675 5673 5671 5669 5668 5667 5667 5668 5668 5667 5666
5736 5720 5716 5721 5729 5737 5770 5773 5775 5769 5764 5785 5782 5756 5757 5778 5778 5777 5770 5766 5760 5752 5746 5739 5732 5725 5717 5709 5703 5698 5697 5692 5686 5682 5680 5678 5674 5671 5668 5665 5664 5663 5662 5660 5660 5661 5661 5659 5658
5740 5702 5704 5722 5728 5745 5768 5756 5779 5779 5769 5776 5777 5772 5782 5781 5771 5765 5758 5753 5748 5744 5741 5735 5728 5724 5717 5710 5703 5695 5693 5689 5683 5678 5675 5671 5668 5664 5661 5658 5657 5656 5655 5653 5654 5655 5654 5652 5650
5721 5697 5718 5756 5750 5746 5754 5755 5763 5758 5760 5763 5768 5780 5780 5777 5768 5762 5753 5747 5745 5741 5736 5731 5724 5720 5712 5706 5699 5693 5688 5683 5678 5673 5668 5664 5660 5657 5655 5654 5652 5650 5648 5647 5647 5646 5646 5644 5643
5722 5712 5750 5750 5758 5748 5744 5750 5765 5748 5747 5762 5758 5769 5765 5768 5765 5759 5754 5755 5753 5748 5737 5729 5720 5714 5708 5703 5695 5688 5682 5676 5672 5668 5663 5659 5655 5652 5650 5648 5645 5642 5639 5638 5638 5637 5636 5634 5633
5711 5728 5740 5753 5754 5739 5736 5748 5744 5751 5752 5773 5772 5771 5766 5760 5756 5757 5753 5753 5749 5742 5735 5728 5719 5711 5703 5699 5691 5682 5675 5671 5667 5663 5657 5652 5648 5646 5644 5641 5638 5634 5631 5629 5627 5627 5626 5625 5625
5711 5734 5740 5740 5739 5742 5741 5736 5739 5747 5768 5774 5769 5765 5763 5762 5760 5759 5759 5755 5746 5738 5730 5725 5715 5706 5699 5692 5683 5675 5671 5667 5664 5659 5654 5649 5644 5641 5638 5636 5633 5629 5625 5622 5620 5619 5618 5619 5619
5727 5722 5727 5732 5734 5738 5731 5733 5738 5759 5766 5764 5763 5758 5763 5764 5762 5753 5748 5748 5744 5739 5729 5719 5711 5703 5695 5685 5677 5673 5670 5666 5662 5657 5651 5646 5640 5635 5633 5629 5625 5621 5618 5615 5614 5613 5613 5613 5613
5717 5701 5717 5729 5733 5736 5734 5720 5736 5759 5758 5756 5760 5759 5762 5767 5760 5754 5760 5752 5746 5738 5727 5716 5710 5699 5691 5683 5678 5672 5670 5665 5660 5655 5649 5643 5638 5634 5629 5623 5619 5615 5611 5608 5607 5606 5605 5605 5606
5697 5696 5691 5729 5736 5747 5720 5714 5746 5758 5750 5753 5759 5762 5759 5760 5761 5763 5757 5749 5741 5734 5724 5713 5707 5697 5689 5681 5676 5672 5668 5663 5659 5654 5648 5642 5637 5631 5625 5619 5613 5610 5606 5601 5599 5597 5596 5596 5599
5673 5676 5686 5711 5734 5724 5713 5715 5754 5755 5748 5749 5755 5759 5759 5760 5757 5756 5752 5744 5735 5727 5717 5708 5702 5695 5688 5680 5673 5670 5666 5661 5659 5653 5646 5640 5635 5629 5623 5616 5610 5606 5601 5596 5594 5591 5591 5592 5596
5669 5672 5692 5703 5726 5716 5713 5712 5745 5755 5749 5747 5755 5762 5758 5760 5760 5761 5752 5742 5732 5722 5714 5706 5699 5692 5683 5676 5670 5667 5664 5661 5657 5652 5645 5637 5632 5626 5619 5613 5607 5603 5597 5593 5590 5588 5589 5591 5595
5692 5683 5689 5717 5723 5710 5709 5711 5736 5752 5745 5748 5755 5760 5757 5759 5759 5755 5747 5739 5731 5718 5709 5701 5695 5685 5679 5672 5667 5664 5660 5656 5653 5648 5641 5634 5629 5624 5618 5610 5605 5601 5595 5592 5589 5589 5589 5590 5594
5679 5674 5684 5707 5723 5706 5710 5712 5732 5744 5746 5753 5762 5758 5756 5750 5747 5745 5742 5735 5725 5716 5706 5697 5691 5682 5678 5672 5667 5663 5657 5654 5649 5643 5639 5632 5627 5622 5616 5608 5604 5599 5594 5591 5589 5591 5591 5593 5596
5670 5673 5688 5693 5708 5705 5703 5702 5722 5747 5747 5756 5760 5760 5756 5753 5746 5742 5736 5730 5718 5712 5703 5696 5686 5681 5676 5670 5666 5660 5655 5652 5647 5640 5634 5630 5625 5619 5614 5608 5604 5600 5595 5591 5591 5594 5597 5597 5600
5663 5696 5694 5693 5681 5672 5697 5656 5711 5725 5733 5745 5756 5758 5760 5754 5746 5741 5735 5718 5714 5709 5702 5692 5684 5679 5674 5669 5664 5657 5651 5645 5640 5635 5631 5626 5621 5615 5611 5607 5605 5602 5598 5595 5596 5599 5602 5605 5605
5684 5692 5688 5684 5675 5672 5687 5658 5702 5719 5722 5735 5749 5755 5755 5751 5745 5736 5727 5717 5710 5706 5696 5688 5682 5677 5672 5667 5661 5655 5650 5644 5637 5632 5627 5620 5617 5613 5610 5607 5606 5604 5603 5602 5603 5605 5607 5611 5613
5688 5678 5675 5670 5661 5639 5688 5666 5704 5709 5727 5746 5756 5762 5752 5741 5735 5725 5717 5711 5704 5698 5691 5684 5679 5674 5669 5663 5659 5654 5648 5641 5633 5628 5623 5617 5613 5610 5608 5608 5607 5607 5608 5608 5608 5610 5613 5616 5619
5671 5649 5623 5615 5625 5634 5690 5667 5707 5733 5742 5747 5751 5755 5740 5733 5727 5719 5714 5706 5699 5692 5685 5680 5675 5670 5666 5662 5658 5653 5646 5639 5631 5626 5620 5616 5612 5608 5607 5608 5609 5609 5610 5613 5613 5614 5617 5620 5624
5675 5665 5631 5623 5628 5654 5689 5673 5715 5741 5751 5754 5759 5751 5739 5727 5723 5718 5712 5705 5697 5690 5683 5679 5673 5669 5663 5662 5657 5650 5644 5637 5630 5624 5620 5615 5612 5609 5609 5610 5610 5612 5613 5616 5617 5619 5621 5623 5626
5678 5661 5677 5656 5668 5660 5670 5704 5728 5741 5746 5749 5747 5743 5734 5725 5720 5714 5709 5700 5695 5688 5682 5678 5672 5667 5664 5661 5656 5648 5644 5636 5630 5626 5620 5615 5613 5612 5613 5614 5613 5614 5615 5618 5619 5620 5622 5626 5627
5678 5675 5649 5636 5634 5640 5667 5686 5696 5735 5737 5738 5740 5736 5727 5722 5715 5709 5703 5698 5693 5688 5683 5676 5672 5668 5666 5661 5656 5649 5644 5637 5631 5626 5620 5616 5615 5616 5617 5616 5617 5616 5618 5619 5621 5622 5625 5628 5628
5659 5660 5665 5663 5653 5639 5645 5676 5718 5733 5736 5737 5735 5736 5729 5723 5714 5709 5702 5698 5694 5687 5681 5675 5670 5667 5665 5660 5656 5652 5644 5639 5634 5628 5622 5619 5618 5620 5620 5621 5619 5619 5618 5619 5619 5622 5627 5631 5630
5682 5678 5680 5666 5659 5665 5670 5701 5739 5739 5740 5742 5736 5735 5728 5721 5716 5711 5704 5697 5690 5685 5679 5675 5671 5668 5667 5662 5658 5654 5647 5642 5636 5631 5625 5622 5622 5623 5624 5624 5622 5622 5621 5620 5621 5621 5626 5628 5630